Location: Brno
(49.2000°N, 16.6330°E)
Time: 06:55:15
(UTC+02:00)

CARTOSAT-1 - Visible Passes

Search period start: 16 September 2014 00:00
Search period end: 26 September 2014 00:00
Orbit: 616 x 620 km, 97.8° (Epoch: 15 September)

Date Brightness Start Highest point End Pass type
(mag) Time Alt. Az. Time Alt. Az. Time Alt. Az.
16 Sep 5.6 21:22:35 16° NE 21:22:35 16° NE 21:24:27 10° NNE visible
16 Sep 5.7 22:59:43 25° NNW 22:59:43 25° NNW 23:01:36 10° NNW visible
17 Sep 5.4 21:39:39 20° NE 21:39:39 20° NE 21:41:41 10° N visible
17 Sep 6.0 23:16:48 20° NW 23:16:48 20° NW 23:18:16 10° NNW visible
18 Sep 5.4 21:56:44 23° NNE 21:56:44 23° NNE 21:58:45 10° N visible
18 Sep 6.4 23:33:52 15° NW 23:33:52 15° NW 23:34:49 10° NNW visible
19 Sep 5.4 22:13:48 24° N 22:13:48 24° N 22:15:43 10° N visible
19 Sep 6.6 23:50:56 11° NW 23:50:56 11° NW 23:51:13 10° NW visible
20 Sep 5.6 22:30:53 23° N 22:30:53 23° N 22:32:36 10° N visible
21 Sep 5.9 21:10:49 12° NE 21:10:49 12° NE 21:11:44 10° NNE visible
21 Sep 5.9 22:47:57 21° NNW 22:47:57 21° NNW 22:49:25 10° NNW visible
22 Sep 5.8 21:27:54 15° NNE 21:27:54 15° NNE 21:29:10 10° NNE visible
22 Sep 6.2 23:05:02 18° NNW 23:05:02 18° NNW 23:06:09 10° NNW visible
23 Sep 5.7 21:44:59 17° NNE 21:44:59 17° NNE 21:46:21 10° N visible
23 Sep 6.5 23:22:07 14° NNW 23:22:07 14° NNW 23:22:48 10° NNW visible
24 Sep 5.8 22:02:04 18° NNE 22:02:04 18° NNE 22:03:24 10° N visible
24 Sep 6.7 23:39:12 11° NW 23:39:12 11° NW 23:39:20 10° NW visible
25 Sep 5.9 22:19:09 18° N 22:19:09 18° N 22:20:22 10° N visible
